﻿測定場所 (Monitoring sites),日付 (Measurement date),時間 (Measurement time),線量率 最大値 (max) μGy/h,線量率 最小値 (min) μGy/h,線量率 平均値 (average) μGy/h,
足立 (Adachi),2013-10-27,23:01～24:00,0.0512,0.0446,0.0471,
足立 (Adachi),2013-10-27,22:01～23:00,0.0498,0.0431,0.0468,
足立 (Adachi),2013-10-27,21:01～22:00,0.0498,0.0423,0.0472,
足立 (Adachi),2013-10-27,20:01～21:00,0.0501,0.0450,0.0472,
足立 (Adachi),2013-10-27,19:01～20:00,0.0501,0.0440,0.0470,
足立 (Adachi),2013-10-27,18:01～19:00,0.0501,0.0439,0.0469,
足立 (Adachi),2013-10-27,17:01～18:00,0.0494,0.0440,0.0467,
足立 (Adachi),2013-10-27,16:01～17:00,0.0501,0.0437,0.0467,
足立 (Adachi),2013-10-27,15:01～16:00,0.0512,0.0434,0.0469,
足立 (Adachi),2013-10-27,14:01～15:00,0.0502,0.0441,0.0471,
足立 (Adachi),2013-10-27,13:01～14:00,0.0498,0.0441,0.0465,
足立 (Adachi),2013-10-27,12:01～13:00,0.0492,0.0431,0.0469,
足立 (Adachi),2013-10-27,11:01～12:00,0.0502,0.0435,0.0467,
足立 (Adachi),2013-10-27,10:01～11:00,0.0499,0.0446,0.0471,
足立 (Adachi),2013-10-27,09:01～10:00,0.0512,0.0438,0.0469,
足立 (Adachi),2013-10-27,08:01～09:00,0.0501,0.0446,0.0471,
足立 (Adachi),2013-10-27,07:01～08:00,0.0511,0.0439,0.0475,
足立 (Adachi),2013-10-27,06:01～07:00,0.0517,0.0444,0.0474,
足立 (Adachi),2013-10-27,05:01～06:00,0.0509,0.0447,0.0470,
足立 (Adachi),2013-10-27,04:01～05:00,0.0513,0.0446,0.0474,
足立 (Adachi),2013-10-27,03:01～04:00,0.0502,0.0450,0.0473,
足立 (Adachi),2013-10-27,02:01～03:00,0.0501,0.0439,0.0474,
足立 (Adachi),2013-10-27,01:01～02:00,0.0508,0.0451,0.0471,
足立 (Adachi),2013-10-27,00:01～01:00,0.0497,0.0438,0.0471,
足立 (Adachi),2013-10-26,23:01～24:00,0.0506,0.0446,0.0473,
足立 (Adachi),2013-10-26,22:01～23:00,0.0493,0.0430,0.0465,
足立 (Adachi),2013-10-26,21:01～22:00,0.0496,0.0436,0.0466,
足立 (Adachi),2013-10-26,20:01～21:00,0.0498,0.0435,0.0466,
足立 (Adachi),2013-10-26,19:01～20:00,0.0510,0.0439,0.0468,
足立 (Adachi),2013-10-26,18:01～19:00,0.0496,0.0431,0.0462,
足立 (Adachi),2013-10-26,17:01～18:00,0.0502,0.0431,0.0461,
足立 (Adachi),2013-10-26,16:01～17:00,0.0503,0.0428,0.0462,
足立 (Adachi),2013-10-26,15:01～16:00,0.0502,0.0435,0.0465,
足立 (Adachi),2013-10-26,14:01～15:00,0.0532,0.0442,0.0489,
足立 (Adachi),2013-10-26,13:01～14:00,0.0549,0.0478,0.0519,
足立 (Adachi),2013-10-26,12:01～13:00,0.0619,0.0492,0.0562,
足立 (Adachi),2013-10-26,11:01～12:00,0.0712,0.0595,0.0640,
足立 (Adachi),2013-10-26,10:01～11:00,0.0660,0.0558,0.0610,
足立 (Adachi),2013-10-26,09:01～10:00,0.0626,0.0558,0.0595,
足立 (Adachi),2013-10-26,08:01～09:00,0.0637,0.0552,0.0594,
足立 (Adachi),2013-10-26,07:01～08:00,0.0631,0.0521,0.0572,
足立 (Adachi),2013-10-26,06:01～07:00,0.0571,0.0479,0.0525,
足立 (Adachi),2013-10-26,05:01～06:00,0.0538,0.0467,0.0503,
足立 (Adachi),2013-10-26,04:01～05:00,0.0570,0.0485,0.0527,
足立 (Adachi),2013-10-26,03:01～04:00,0.0570,0.0459,0.0506,
足立 (Adachi),2013-10-26,02:01～03:00,0.0543,0.0457,0.0500,
足立 (Adachi),2013-10-26,01:01～02:00,0.0564,0.0493,0.0528,
足立 (Adachi),2013-10-26,00:01～01:00,0.0571,0.0500,0.0531,
足立 (Adachi),2013-10-25,23:01～24:00,0.0586,0.0472,0.0520,
足立 (Adachi),2013-10-25,22:01～23:00,0.0561,0.0478,0.0508,
足立 (Adachi),2013-10-25,21:01～22:00,0.0551,0.0471,0.0502,
足立 (Adachi),2013-10-25,20:01～21:00,0.0525,0.0458,0.0486,
足立 (Adachi),2013-10-25,19:01～20:00,0.0530,0.0449,0.0493,
足立 (Adachi),2013-10-25,18:01～19:00,0.0516,0.0431,0.0473,
足立 (Adachi),2013-10-25,17:01～18:00,0.0497,0.0424,0.0464,
足立 (Adachi),2013-10-25,16:01～17:00,0.0498,0.0437,0.0465,
足立 (Adachi),2013-10-25,15:01～16:00,0.0512,0.0421,0.0468,
足立 (Adachi),2013-10-25,14:01～15:00,0.0499,0.0442,0.0471,
足立 (Adachi),2013-10-25,13:01～14:00,0.0504,0.0439,0.0475,
足立 (Adachi),2013-10-25,12:01～13:00,0.0508,0.0447,0.0477,
足立 (Adachi),2013-10-25,11:01～12:00,0.0535,0.0456,0.0488,
足立 (Adachi),2013-10-25,10:01～11:00,0.0526,0.0446,0.0491,
足立 (Adachi),2013-10-25,09:01～10:00,0.0531,0.0459,0.0489,
足立 (Adachi),2013-10-25,08:01～09:00,0.0527,0.0442,0.0478,
足立 (Adachi),2013-10-25,07:01～08:00,0.0499,0.0432,0.0460,
足立 (Adachi),2013-10-25,06:01～07:00,0.0491,0.0436,0.0465,
足立 (Adachi),2013-10-25,05:01～06:00,0.0493,0.0435,0.0460,
足立 (Adachi),2013-10-25,04:01～05:00,0.0493,0.0426,0.0461,
足立 (Adachi),2013-10-25,03:01～04:00,0.0494,0.0440,0.0463,
足立 (Adachi),2013-10-25,02:01～03:00,0.0496,0.0435,0.0469,
足立 (Adachi),2013-10-25,01:01～02:00,0.0526,0.0450,0.0484,
足立 (Adachi),2013-10-25,00:01～01:00,0.0525,0.0448,0.0492,
足立 (Adachi),2013-10-24,23:01～24:00,0.0507,0.0443,0.0475,
足立 (Adachi),2013-10-24,22:01～23:00,0.0524,0.0442,0.0473,
足立 (Adachi),2013-10-24,21:01～22:00,0.0496,0.0443,0.0468,
足立 (Adachi),2013-10-24,20:01～21:00,0.0499,0.0421,0.0472,
足立 (Adachi),2013-10-24,19:01～20:00,0.0484,0.0433,0.0462,
足立 (Adachi),2013-10-24,18:01～19:00,0.0502,0.0426,0.0464,
足立 (Adachi),2013-10-24,17:01～18:00,0.0500,0.0433,0.0463,
足立 (Adachi),2013-10-24,16:01～17:00,0.0507,0.0438,0.0471,
足立 (Adachi),2013-10-24,15:01～16:00,0.0513,0.0445,0.0478,
足立 (Adachi),2013-10-24,14:01～15:00,0.0540,0.0453,0.0480,
足立 (Adachi),2013-10-24,13:01～14:00,0.0535,0.0453,0.0497,
足立 (Adachi),2013-10-24,12:01～13:00,0.0533,0.0459,0.0503,
足立 (Adachi),2013-10-24,11:01～12:00,0.0530,0.0462,0.0497,
足立 (Adachi),2013-10-24,10:01～11:00,0.0518,0.0442,0.0479,
足立 (Adachi),2013-10-24,09:01～10:00,0.0522,0.0436,0.0475,
足立 (Adachi),2013-10-24,08:01～09:00,0.0512,0.0439,0.0467,
足立 (Adachi),2013-10-24,07:01～08:00,0.0500,0.0447,0.0470,
足立 (Adachi),2013-10-24,06:01～07:00,0.0497,0.0443,0.0467,
足立 (Adachi),2013-10-24,05:01～06:00,0.0507,0.0441,0.0470,
足立 (Adachi),2013-10-24,04:01～05:00,0.0510,0.0441,0.0470,
足立 (Adachi),2013-10-24,03:01～04:00,0.0503,0.0434,0.0464,
足立 (Adachi),2013-10-24,02:01～03:00,0.0502,0.0430,0.0467,
足立 (Adachi),2013-10-24,01:01～02:00,0.0491,0.0433,0.0466,
足立 (Adachi),2013-10-24,00:01～01:00,0.0504,0.0435,0.0468,
足立 (Adachi),2013-10-23,23:01～24:00,0.0502,0.0436,0.0468,
足立 (Adachi),2013-10-23,22:01～23:00,0.0517,0.0444,0.0471,
足立 (Adachi),2013-10-23,21:01～22:00,0.0500,0.0442,0.0469,
足立 (Adachi),2013-10-23,20:01～21:00,0.0515,0.0445,0.0471,
足立 (Adachi),2013-10-23,19:01～20:00,0.0499,0.0439,0.0467,
足立 (Adachi),2013-10-23,18:01～19:00,0.0510,0.0431,0.0469,
足立 (Adachi),2013-10-23,17:01～18:00,0.0498,0.0425,0.0465,
足立 (Adachi),2013-10-23,16:01～17:00,0.0498,0.0438,0.0462,
足立 (Adachi),2013-10-23,15:01～16:00,0.0491,0.0433,0.0463,
足立 (Adachi),2013-10-23,14:01～15:00,0.0503,0.0425,0.0463,
足立 (Adachi),2013-10-23,13:01～14:00,0.0488,0.0431,0.0463,
足立 (Adachi),2013-10-23,12:01～13:00,0.0494,0.0432,0.0459,
足立 (Adachi),2013-10-23,11:01～12:00,0.0490,0.0437,0.0465,
足立 (Adachi),2013-10-23,10:01～11:00,0.0501,0.0432,0.0469,
足立 (Adachi),2013-10-23,09:01～10:00,0.0489,0.0429,0.0463,
足立 (Adachi),2013-10-23,08:01～09:00,0.0498,0.0437,0.0466,
足立 (Adachi),2013-10-23,07:01～08:00,0.0491,0.0431,0.0464,
足立 (Adachi),2013-10-23,06:01～07:00,0.0485,0.0430,0.0462,
足立 (Adachi),2013-10-23,05:01～06:00,0.0496,0.0430,0.0463,
足立 (Adachi),2013-10-23,04:01～05:00,0.0508,0.0432,0.0470,
足立 (Adachi),2013-10-23,03:01～04:00,0.0505,0.0430,0.0469,
足立 (Adachi),2013-10-23,02:01～03:00,0.0500,0.0425,0.0473,
足立 (Adachi),2013-10-23,01:01～02:00,0.0493,0.0434,0.0468,
足立 (Adachi),2013-10-23,00:01～01:00,0.0508,0.0438,0.0470,
足立 (Adachi),2013-10-22,23:01～24:00,0.0499,0.0432,0.0468,
足立 (Adachi),2013-10-22,22:01～23:00,0.0502,0.0419,0.0466,
足立 (Adachi),2013-10-22,21:01～22:00,0.0501,0.0437,0.0469,
足立 (Adachi),2013-10-22,20:01～21:00,0.0501,0.0429,0.0469,
足立 (Adachi),2013-10-22,19:01～20:00,0.0494,0.0428,0.0463,
足立 (Adachi),2013-10-22,18:01～19:00,0.0507,0.0438,0.0463,
足立 (Adachi),2013-10-22,17:01～18:00,0.0496,0.0441,0.0464,
足立 (Adachi),2013-10-22,16:01～17:00,0.0498,0.0430,0.0463,
足立 (Adachi),2013-10-22,15:01～16:00,0.0487,0.0427,0.0459,
足立 (Adachi),2013-10-22,14:01～15:00,0.0483,0.0432,0.0461,
足立 (Adachi),2013-10-22,13:01～14:00,0.0502,0.0431,0.0461,
足立 (Adachi),2013-10-22,12:01～13:00,0.0490,0.0425,0.0462,
足立 (Adachi),2013-10-22,11:01～12:00,0.0498,0.0429,0.0459,
足立 (Adachi),2013-10-22,10:01～11:00,0.0488,0.0433,0.0461,
足立 (Adachi),2013-10-22,09:01～10:00,0.0490,0.0435,0.0459,
足立 (Adachi),2013-10-22,08:01～09:00,0.0483,0.0422,0.0457,
足立 (Adachi),2013-10-22,07:01～08:00,0.0490,0.0423,0.0459,
足立 (Adachi),2013-10-22,06:01～07:00,0.0479,0.0412,0.0456,
足立 (Adachi),2013-10-22,05:01～06:00,0.0499,0.0427,0.0461,
足立 (Adachi),2013-10-22,04:01～05:00,0.0501,0.0432,0.0461,
足立 (Adachi),2013-10-22,03:01～04:00,0.0485,0.0429,0.0457,
足立 (Adachi),2013-10-22,02:01～03:00,0.0492,0.0420,0.0458,
足立 (Adachi),2013-10-22,01:01～02:00,0.0493,0.0434,0.0458,
足立 (Adachi),2013-10-22,00:01～01:00,0.0484,0.0424,0.0458,
足立 (Adachi),2013-10-21,23:01～24:00,0.0486,0.0409,0.0457,
足立 (Adachi),2013-10-21,22:01～23:00,0.0500,0.0430,0.0462,
足立 (Adachi),2013-10-21,21:01～22:00,0.0495,0.0428,0.0458,
足立 (Adachi),2013-10-21,20:01～21:00,0.0492,0.0430,0.0462,
足立 (Adachi),2013-10-21,19:01～20:00,0.0503,0.0431,0.0463,
足立 (Adachi),2013-10-21,18:01～19:00,0.0495,0.0422,0.0456,
足立 (Adachi),2013-10-21,17:01～18:00,0.0480,0.0429,0.0456,
足立 (Adachi),2013-10-21,16:01～17:00,0.0501,0.0415,0.0451,
足立 (Adachi),2013-10-21,15:01～16:00,0.0486,0.0427,0.0457,
足立 (Adachi),2013-10-21,14:01～15:00,0.0483,0.0429,0.0454,
足立 (Adachi),2013-10-21,13:01～14:00,0.0483,0.0427,0.0453,
足立 (Adachi),2013-10-21,12:01～13:00,0.0476,0.0419,0.0455,
足立 (Adachi),2013-10-21,11:01～12:00,0.0491,0.0435,0.0460,
足立 (Adachi),2013-10-21,10:01～11:00,0.0494,0.0411,0.0456,
足立 (Adachi),2013-10-21,09:01～10:00,0.0484,0.0427,0.0457,
足立 (Adachi),2013-10-21,08:01～09:00,0.0485,0.0426,0.0453,
足立 (Adachi),2013-10-21,07:01～08:00,0.0488,0.0414,0.0448,
足立 (Adachi),2013-10-21,06:01～07:00,0.0487,0.0416,0.0453,
足立 (Adachi),2013-10-21,05:01～06:00,0.0482,0.0424,0.0455,
足立 (Adachi),2013-10-21,04:01～05:00,0.0496,0.0426,0.0459,
足立 (Adachi),2013-10-21,03:01～04:00,0.0487,0.0414,0.0452,
足立 (Adachi),2013-10-21,02:01～03:00,0.0478,0.0426,0.0450,
足立 (Adachi),2013-10-21,01:01～02:00,0.0487,0.0420,0.0449,
足立 (Adachi),2013-10-21,00:01～01:00,0.0488,0.0420,0.0450,
